Location: Austin
(30.3000°N, 97.7500°W)
Time: 20:35:21
(UTC-06:00)

Cosmos 1697 Rocket - Pass Details

Date: 31 October 2024
Orbit: 830 x 844 km, 71.0° (Epoch: 05 November)

Event Time Altitude Azimuth Distance (km) Brightness Sun altitude
Rises 05:59:10 0° 192° (SSW) 3,366 5.8 -23.3°
Reaches altitude 10° 06:01:35 10° 189° (S) 2,438 5.0 -22.8°
Maximum altitude 06:07:08 69° 107° (ESE) 896 3.0 -21.6°
Drops below altitude 10° 06:12:44 10° 25° (NNE) 2,460 5.4 -20.4°
Sets 06:15:12 0° 23° (NNE) 3,399 6.1 -19.8°
